Local Weather and METAR Reports

The data for these readings is taken from the NOAA Wesbite.  Please make sure you conduct your own weather check before flying.

METAR:

EGHI 291820Z VRB01KT 3500 BR BKN004 07/06 Q1027


QNH (Hectopascals): 1027


QNH (Inches Mercury): 30.33


TEMPERATURE (Degrees Celsius): 7°


DEW POINT TEMPERATURE (Degrees Celsius): 6°

Live Radar

Radar Data provided by FlightRadar24

Local NOTAMS

Whilst we will strive to keep local NOTAM information up to date, please make sure that you conduct your own review of local reports before flying.

Loading RSS Feed